COSMOS 2491 DEB, 47111

Orbit data source: Space-Track

COSMOS 2491 DEB, 47111 is space debris in LEO originally from a launch on Wed, 25 Dec 2013 UTC launched from the Plesetsk Missile And Space Complex (PKMTR). Debris objects in space refer to the collection of defunct objects orbiting the Earth. Examples of debris include non-operational satellites, rocket bodies, and fragments generated from explosions, collisions, or faulty payload assembly.

Loading next visibility...
COSMOS 2491 DEB details
Identifier
47111, 2013-076AG
Orbit
LEO
Last TLE update3 days ago
Origin
Flag of CISTsNIIKhM (CIS)
ManufacturerTsNIIKhM
MissionSpacecraft
Bus & MotorUnknown
MassUnknown
Launch date (UTC)
2013-12-25 (11 years ago)
Launch vehicleUnknown
Launch site
Plesetsk Missile And Space Complex (PKMTR)
Object type
Payload
Rocket body
Debris
Shape & HBRUnknown
Radar Cross SectionSmall (<0.1 m²)

Expand to show TLE details & history

TLE from 3 days ago
0 COSMOS 2491 DEB
1 47111U 13076AG  25021.93068066  .00004679  00000-0  27845-1 0  9992
2 47111  82.4446 109.3681 0103794 212.2185 147.2534 12.55927716 74986
Epoch: 2025-01-21T22:20Z
Definitive object data (Epoch: 2025-01-21T22:20:10.809Z)
Latitude0.00001°
Longitude12.79323°
Altitude1,511.02 km
Speed7.078 km/s
True Right ascension07h 17m 28s
True Declination0° 00' 00"
Sunlit
Object was in full shadow at TLE epoch
Visualization TLE readout
Latitude-82.4695°
Longitude-75.68711°
Altitude1,432.094 km
Speed7.162 km/s
Apparent Right ascension03h 40m 47s
Apparent Declination-64° 09' 15"
Sunlit
Object is in daylight
Visualization observer readout
Local Sidereal Time16:07:54
Azimuth172.886° S
Elevation-65.437°
Doppler factor1
Orbital elements
Apogee altitude1,518.251 km
Perigee altitude1,356.015 km
Semi-major axis7,815.27 km
Eccentricity0.0103794
Inclination82.4446°
RAAN109.3681°
Arg. of periapsis212.2185°
True anomaly147.88981°
Mean anomaly147.2534°
Eccentric anomaly147.5723°
Mean motion3.14143 °/min
BSTAR0.027845
Orbital period114.6 mins
Loading maneuver chart data...
Loading historical data...
Loading historical data...
Loading historical data...
Loading historical data...
Loading historical data...
Loading historical data...
Loading historical data...

COSMOS 2491 DEB Visibility forecast

Observer location: undefined°, undefined

Span
Click to sort rows by Start time (UTC) header in descending order
Start Az.
Max El. time (UTC)
Max El. Az.
Max El.
End time (UTC)
End Az.
13 mins2025-01-24 15:57:40.021Z14.216° NNE2025-01-24 16:03:40.021Z63.235° ENE25.426°2025-01-24 16:10:40.021Z124.222° SE
14 mins2025-01-24 17:53:40.021Z341.757° N2025-01-24 18:00:40.021Z256.318° W40.271°2025-01-24 18:07:40.021Z193.538° SSW
13 mins2025-01-25 04:50:40.021Z133.66° SE2025-01-25 04:56:40.021Z81.363° E27.195°2025-01-25 05:03:40.021Z27.476° NE
15 mins2025-01-25 06:44:40.021Z208.409° SW2025-01-25 06:51:40.021Z285.221° WNW40.143°2025-01-25 06:59:40.021Z359.376° N
|